Regional Weather Roundup
Issued by NWS Little Rock, AR

Home | Current Version | Previous Version | Graphics & Text | Print | Product List | Glossary On
Versions: 1 2 3 4 5 6 7 8 9 10 11 12 13 14 15 16 17 18 19 20 21 22 23 24 25 26 27 28 29 30 31 32 33 34 35 36 37 38 39 40 41 42 43 44 45 46 47 48 49 50
344
ASUS44 KLZK 160005
RWRLZK

WEATHER ROUNDUP FOR ARKANSAS
NATIONAL WEATHER SERVICE LITTLE ROCK AR
600 PM CST FRI DEC 15 2017

NOTE: "FAIR" INDICATES FEW OR NO CLOUDS BELOW 12,000 FEET WITH NO
SIGNIFICANT WEATHER AND/OR OBSTRUCTIONS TO VISIBILITY.

ARZ001-003-010-029-160100-
NORTHWEST ARKANSAS

CITY           SKY/WX    TMP DP  RH WIND       PRES   REMARKS
FAYETTEVILLE   CLEAR     39  26  59 SW3       30.14R
6HR MIN TEMP:  39; 6HR MAX TEMP:  48;

FORT SMITH     CLEAR     45  30  55 CALM      30.17R
6HR MIN TEMP:  42; 6HR MAX TEMP:  52;

HARRISON       CLEAR     40  25  55 SW5       30.11S
6HR MIN TEMP:  40; 6HR MAX TEMP:  48;

BENTONVILLE    CLEAR     39  26  59 SW5       30.14S
6HR MIN TEMP:  39; 6HR MAX TEMP:  46;

ROGERS         CLEAR     40  26  57 SW6       30.13R
6HR MIN TEMP:  40; 6HR MAX TEMP:  45;

SILOAM SPGS    CLEAR     38  25  59 SW6       30.14S
6HR MIN TEMP:  38; 6HR MAX TEMP:  47;

HIGHFILL       CLEAR     36  26  67 W5        30.13R
6HR MIN TEMP:  36; 6HR MAX TEMP:  47;

$$

ARZ004-005-016-160100-
NORTH CENTRAL ARKANSAS

CITY           SKY/WX    TMP DP  RH WIND       PRES   REMARKS
BATESVILLE     CLEAR     45  29  53 SW6       30.14R
6HR MIN TEMP:  44; 6HR MAX TEMP:  53;

FLIPPIN        CLEAR     41  25  53 CALM      30.13S
6HR MIN TEMP:  41; 6HR MAX TEMP:  51;

MTN HOME       CLEAR     42  27  55 CALM      30.11S
6HR MIN TEMP:  42; 6HR MAX TEMP:  49;

$$

ARZ040-041-160100-
WEST CENTRAL ARKANSAS

CITY           SKY/WX    TMP DP  RH WIND       PRES   REMARKS
MENA           CLEAR     37  32  81 CALM      30.17S
MOUNT IDA      CLEAR     44  29  55 CALM      30.14S
6HR MIN TEMP:  44; 6HR MAX TEMP:  56;

$$

ARZ009-017-025-026-028-160100-
NORTHEAST ARKANSAS

CITY           SKY/WX    TMP DP  RH WIND       PRES   REMARKS
CORNING        FAIR      39  28  65 SW8       30.13R
JONESBORO      CLEAR     43  31  62 SW8       30.14R
6HR MIN TEMP:  43; 6HR MAX TEMP:  50;

NEWPORT        CLEAR     38  30  73 S9        30.15R
6HR MIN TEMP:  38; 6HR MAX TEMP:  52;

BLYTHEVILLE    CLEAR     39  29  67 S7        30.16R
6HR MIN TEMP:  39; 6HR MAX TEMP:  49;

$$

ARZ022-023-033-042-044-160100-
CENTRAL ARKANSAS

CITY           SKY/WX    TMP DP  RH WIND       PRES   REMARKS
LITTLE ROCK    PTCLDY    44  30  57 SW8       30.17S
6HR MIN TEMP:  44; 6HR MAX TEMP:  53;

N LITTLE ROCK    N/A     45  30  56 CALM      30.20R
6HR MIN TEMP:  45; 6HR MAX TEMP:  53;

JACKSONVILLE   CLEAR     45  29  52 S3        30.16R
6HR MIN TEMP:  42; 6HR MAX TEMP:  54;

SEARCY         CLEAR     42  29  59 SW3       30.17R
6HR MIN TEMP:  41; 6HR MAX TEMP:  53;

HOT SPRINGS    CLEAR     47  30  51 CALM      30.17S
6HR MIN TEMP:  47; 6HR MAX TEMP:  55;

RUSSELLVILLE   CLEAR     43  28  55 SW3       30.16R
6HR MIN TEMP:  43; 6HR MAX TEMP:  52;

CLINTON        FAIR      45  30  57 VRB5      30.15R
$$

ARZ036-160100-
EAST ARKANSAS

CITY           SKY/WX    TMP DP  RH WIND       PRES   REMARKS
WEST MEMPHIS   CLEAR     40  28  62 S5        30.17S
6HR MIN TEMP:  40; 6HR MAX TEMP:  48;

$$

ARZ050-053-066-070-073-160100-
SOUTHWEST ARKANSAS

CITY           SKY/WX    TMP DP  RH WIND       PRES   REMARKS
ARKADELPHIA    FAIR      41  29  62 SW5       30.21R
6HR MIN TEMP:  40; 6HR MAX TEMP:  55;

CAMDEN         PTCLDY    41  28  60 CALM      30.21R
TEXARKANA      CLEAR     45  30  55 CALM      30.20S
6HR MIN TEMP:  41; 6HR MAX TEMP:  54;

EL DORADO      PTCLDY    41  32  70 CALM      30.23R
6HR MIN TEMP:  41; 6HR MAX TEMP:  53;

DE QUEEN       CLEAR     46  31  55 SW6       30.17F
6HR MIN TEMP:  46; 6HR MAX TEMP:  56;

$$

ARZ056-057-069-160100-
SOUTHEAST ARKANSAS

CITY           SKY/WX    TMP DP  RH WIND       PRES   REMARKS
PINE BLUFF     CLEAR     40  28  62 S7        30.21R
6HR MIN TEMP:  40; 6HR MAX TEMP:  51;

STUTTGART      CLEAR     44  29  55 S9        30.19R
6HR MIN TEMP:  42; 6HR MAX TEMP:  51;

MONTICELLO     CLOUDY    43  28  55 SW6       30.23R
6HR MIN TEMP:  43; 6HR MAX TEMP:  51;


$$






USA.gov is the U.S. government's official web portal to all federal, state and local government web resources and services.